Погода в Охвате

Россия / Тверская область     56°46′18″N   32°26′34″E
темп.,
°C
ветер,
м/с
пор.,
м/с
влажн.,
%
обл.,
%
осадки,
мм/ч
давл.,
гПа
погр.,
м
17 сентября, пт
пт1700:00+3в1181100 0.0 102110
03:00+2в118687 0.0 102110
06:00+2в2293100 0.0 102140
09:00+5всв3473100 0.0 1020364
12:00+9в345472 0.0 10201367
15:00+10всв455071 0.0 10201529
18:00+7вюв475911 0.0 1021806
21:00+2всв29795 0.0 1022184
18 сентября, сб
сб1800:00+1всв29837 0.0 1023171
03:00+1всв31085100 0.0 1023251
06:00+1всв31290100 0.0 1024322
09:00+5в4126972 0.0 1024680
12:00+9в5850100 0.0 10231279
15:00+11в584562 0.0 10221437
18:00+9в51056100 0.0 10211197
21:00+6всв61271100 0.0 1022735
19 сентября, вс
вс1900:00+4всв51475100 0.0 1022628
03:00+4всв51475100 0.0 1021610
06:00+4всв51475100 0.0 1021638
09:00+5всв61571100 0.0 1021749
12:00+7всв71460100 0.0 10201035
15:00+7всв71464100 0.1 10201152
18:00+5всв61483100 1.1 10201018
21:00+3всв61591100 2.4 10201017
20 сентября, пн
пн2000:00+3всв61595100 1.1 1020952
03:00+3всв61497100 1.6 1019951
06:00+2всв61597100 0.9 1019954
09:00+3всв61591100 1.8 1020961
12:00+4всв61383100 0.0 10201059
15:00+5всв61380100 0.0 10201118
18:00+5всв61382100 0.0 10201119
21:00+4всв61393100 0.1 10201008
21 сентября, вт
вт2100:00+4всв51276100 0.1 1019964
03:00+2всв51297100 0.2 1018603
06:00+2св41198100 2.0 1017524
09:00+2св41098100 2.7 1016493
12:00+2св4997100 0.9 1015475
15:00+3св3998100 1.8 1014493
18:00+3св31098100 0.6 1013580
21:00+4всв3998100 0.9 1013524